Погода в Рузе

Россия / Московская область     55°42′05″N   36°11′45″E
темп.,
°C
ветер,
м/с
пор.,
м/с
влажн.,
%
обл.,
%
осадки,
мм/ч
давл.,
гПа
погр.,
м
6 марта, сб
сб600:00−9сз23890 0.0 101539
03:00−10сз23940 0.0 101778
06:00−11зсз25959 0.0 1016117
09:00−9зсз358933 0.0 1017249
12:00−6зсз467572 0.1 1018968
15:00−5зсз476786 0.3 10161314
18:00−7з248399 0.1 101597
21:00−10юз379066 0.1 1014164
7 марта, вс
вс700:00−9юз4118661 0.0 1011396
03:00−7юз6148481 0.0 1006817
06:00−5юз71592100 1.4 10011150
09:00−4юз81592100 2.6 9961089
12:00−2зюз81590100 1.2 9931266
15:00−4зсз61357100 3.4 9941961
18:00−7з3107333 0.0 996363
21:00−7зюз4128542 0.1 996816
8 марта, пн
пн800:00−6зсз4991100 0.9 995441
03:00−9ююз249693 1.1 996150
06:00−8ссз4992100 2.4 997599
09:00−11сз51287100 2.4 1000666
12:00−7сз5982100 0.1 10031025
15:00−6сз5880100 0.3 10061089
18:00−8ссз3889100 0.1 1009558
21:00−12ссз259698 0.2 1012111
9 марта, вт
вт900:00−14ссз229789 0.0 101344
03:00−16ссз229779 0.0 101527
06:00−17ссз239867 0.0 101672
09:00−16ссз259142 0.0 1018262
12:00−12ссз358254 0.0 1019508
15:00−11ссз358064 0.0 1020658
18:00−14сз2291100 0.0 102034
21:00−17ссз119458 0.0 102220
10 марта, ср
ср1000:00−17ююв019437 0.0 102320
03:00−16юв239669 0.0 1023109
06:00−15юв3695100 0.4 1022223
09:00−14юв3693100 1.1 1021288
12:00−11вюв3689100 0.4 1021407
15:00−9вюв4687100 0.6 1020492
18:00−11в4892100 0.2 1020352
21:00−13вюв4894100 0.3 1021325